Volver al catálogo

STARLINK-11309

ActivoComunicacionesVLEO
NORAD 61202·PAYLOAD·🇺🇸 United States

Lanzado Sep 20, 2024 desde Vandenberg Space Force Base

Loading…

Próximos Pases (próximas 24 horas)

TLE

ActualizadoSource: CelesTrak SupGP

Época: Sep 15, 2026, 02:57 UTC

1 61202C 24171C   26258.12340278  .00059968  00000+0  49392-3 0  2580
2 61202  53.1563 322.4974 0001116  86.2384 158.1818 15.69681902    17

Sigue STARLINK-11309 en tiempo real con AllMySat

Download on the App Store